sat.trackr.live / text

‹ back to catalog

STARLINK-36403

NORAD 67563 · 2026-016C

PAYLOAD ACTIVE UNKNOWN

§ Identity

Operator
Country
US
Launch date
2026-01-25
Launch site
AFWTR
Launch vehicle
Mass (kg)
RCS (m²)

Purposes: comms

External: N2YO · Heavens-Above · Gunter

§ Orbital elements

Epoch: 2026-05-25T03:26:45.892608Z

Period
93.91 min
Inclination
97.2834°
Eccentricity
0.0001513
Mean motion
15.33451544 rev/d
Perigee alt
464.5 km
Apogee alt
466.6 km
Semi-major
6,843.7 km
B*
6.1780e-4
RAAN
205.5133°
Arg perigee
76.9182°
Mean anomaly
283.2229°
Rev number
1,858

§ Raw data

STARLINK-364031 67563U 26016C   26145.14358672  .00019927  00000+0  61780-3 0  99982 67563  97.2834 205.5133 0001513  76.9182 283.2229 15.33451544 18589

JSON: /api/v1/satellites/67563 · /tle

For live sub-satellite position, see the globe view (requires WebGL).

§ Visibility from observer

Set your observer location to see the next 7 days of passes ≥ 10°. The values pass through the URL so the page stays shareable.

No JS? Fill the form by hand. The geolocation button needs JavaScript.